Date String (YYYY-MM-DD hh:mm:ss) UTC,Instrument flags,absolute air pressure of the measurement (hPa),sample flow rate (lpm),inlet stack bypass flow (lpm),air temperature of the measurement (°C),ambient temperature measured by the external sensor (°C),aerosol sample conditioner tube jacket temperature (°C),OPC LED temperature (°C),internal box temperature (°C),relative humidity of the measurement (%),span deviation,mass concentration of particles derived from Lorenz-Mie calculation of OPC scattering (μg/m³),mass concentration of particles derived from Lorenz-Mie calculation of OPC scattering (μg/m³),mass concentration of particles derived from Lorenz-Mie calculation of OPC scattering (μg/m³)
DateTimeUTC,F1_M11,P_M11,Q1_M11,Q2_M11,T1_M11,T2_M11,T3_M11,T4_M11,T5_M11,U1_M11,ZSPAN_M11,X0_M11,X2_M11,X1_M11
2024-01-19 13:00:00,SystemResetWarning,0835.5,5.00,000.00,018.9,017.7,000.0,027.3,020.0,10.5,0001.6,0010.84,0008.08,0007.65
2024-01-19 13:01:00,SystemResetWarning,0835.5,5.00,000.00,018.9,017.5,000.0,027.3,020.0,10.5,0001.4,0010.84,0008.11,0007.69
2024-01-19 13:02:00,SystemResetWarning,0835.6,5.01,000.00,018.9,017.6,000.0,027.3,020.2,10.6,0001.3,0010.85,0008.13,0007.71
2024-01-19 13:03:00,SystemResetWarning,0835.6,5.01,000.00,019.0,018.4,000.0,027.2,020.6,10.5,0001.7,0010.91,0008.15,0007.73
2024-01-19 13:04:00,SystemResetWarning,0835.6,4.99,000.00,019.1,018.9,000.0,027.2,020.5,10.5,0002.3,0010.91,0008.15,0007.75
2024-01-19 13:05:00,SystemResetWarning,0835.6,4.99,000.00,019.0,018.6,000.0,027.2,020.0,10.5,0002.2,0010.81,0008.12,0007.73
2024-01-19 13:06:00,SystemResetWarning,0835.5,5.01,000.00,018.9,018.2,000.0,027.2,020.0,10.5,0002.1,0010.75,0008.11,0007.72
2024-01-19 13:07:00,SystemResetWarning,0835.5,5.00,000.00,018.9,017.9,000.0,027.3,020.0,10.5,0002.6,0010.77,0008.13,0007.73
2024-01-19 13:08:00,SystemResetWarning,0835.5,4.99,000.00,018.9,017.6,000.0,027.3,020.0,10.5,0002.7,0010.91,0008.15,0007.75
2024-01-19 13:09:00,SystemResetWarning,0835.5,5.00,000.00,018.8,017.5,000.0,027.3,020.1,10.5,0002.7,0011.37,0008.14,0007.78
2024-01-19 13:10:00,SystemResetWarning,0835.5,5.02,000.00,018.9,018.1,000.0,027.2,020.5,10.5,0002.3,0011.31,0008.14,0007.79
2024-01-19 13:11:00,SystemResetWarning,0835.5,4.99,000.00,019.0,018.8,000.0,027.2,020.8,10.4,0002.1,0011.29,0008.13,0007.79
2024-01-19 13:12:00,SystemResetWarning,0835.6,4.99,000.00,019.0,018.8,000.0,027.2,020.2,10.3,0002.1,0011.27,0008.11,0007.76
2024-01-19 13:13:00,SystemResetWarning,0835.6,5.00,000.00,018.9,018.4,000.0,027.2,020.0,10.4,0001.8,0011.27,0008.07,0007.72
2024-01-19 13:14:00,SystemResetWarning,0835.6,5.00,000.00,018.9,018.1,000.0,027.3,020.0,10.4,0001.5,0011.07,0007.97,0007.65
2024-01-19 13:15:00,SystemResetWarning,0835.6,5.01,000.00,018.9,017.8,000.0,027.3,020.0,10.4,0000.9,0011.03,0007.89,0007.56
2024-01-19 13:16:00,SystemResetWarning,0835.6,5.00,000.00,018.9,017.6,000.0,027.3,020.0,10.5,0000.7,0011.52,0007.83,0007.49
2024-01-19 13:17:00,SystemResetWarning,0835.7,5.00,000.00,018.9,017.7,000.0,027.2,020.3,10.5,0000.4,0011.44,0007.75,0007.40
2024-01-19 13:18:00,SystemResetWarning,0835.6,5.02,000.00,019.0,018.5,000.0,027.2,020.7,10.5,0000.4,0011.36,0007.67,0007.32
2024-01-19 13:19:00,SystemResetWarning,0835.8,4.99,000.00,019.1,018.9,000.0,027.2,020.5,10.4,0000.1,0011.19,0007.61,0007.24
2024-01-19 13:20:00,SystemResetWarning,0835.8,4.98,000.00,019.0,018.6,000.0,027.2,020.0,10.5,0000.3,0010.79,0007.60,0007.18
2024-01-19 13:21:00,SystemResetWarning,0835.8,5.01,000.00,018.9,018.3,000.0,027.2,020.0,10.5,0000.2,0010.74,0007.54,0007.10
2024-01-19 13:22:00,SystemResetWarning,0835.8,5.00,000.00,018.9,018.0,000.0,027.3,020.0,10.6,0000.3,0010.68,0007.49,0007.04
2024-01-19 13:23:00,SystemResetWarning,0835.8,5.00,000.00,018.9,017.7,000.0,027.3,020.0,10.6,0000.1,0010.68,0007.43,0006.98
2024-01-19 13:24:00,SystemResetWarning,0835.8,5.00,000.00,018.8,017.5,000.0,027.3,020.1,10.5,0000.6,0010.62,0007.38,0006.92
2024-01-19 13:25:00,SystemResetWarning,0835.7,5.01,000.00,018.9,018.0,000.0,027.2,020.5,10.4,0001.1,0010.62,0007.38,0006.90
2024-01-19 13:26:00,SystemResetWarning,0835.7,4.99,000.00,019.0,018.8,000.0,027.2,020.7,10.4,0001.7,0010.62,0007.36,0006.87
2024-01-19 13:27:00,SystemResetWarning,0835.6,4.99,000.00,019.0,018.7,000.0,027.2,020.1,10.3,0002.1,0010.00,0007.32,0006.85
2024-01-19 13:28:00,SystemResetWarning,0835.6,5.00,000.00,018.9,018.3,000.0,027.2,020.0,10.4,0002.9,0010.23,0007.28,0006.81
2024-01-19 13:29:00,SystemResetWarning,0835.7,5.00,000.00,018.9,018.0,000.0,027.2,020.0,10.4,0002.8,0010.17,0007.24,0006.78
2024-01-19 13:30:00,SystemResetWarning,0835.7,4.99,000.00,018.9,017.7,000.0,027.3,020.0,10.4,0003.0,0010.24,0007.27,0006.77
2024-01-19 13:31:00,SystemResetWarning,0835.6,5.00,000.00,018.8,017.5,000.0,027.2,020.1,10.4,0003.1,0010.18,0007.21,0006.75
2024-01-19 13:32:00,SystemResetWarning,0835.7,5.02,000.00,018.9,018.2,000.0,027.2,020.5,10.4,0003.3,0010.63,0007.17,0006.74
2024-01-19 13:33:00,SystemResetWarning,0835.7,4.99,000.00,019.0,018.8,000.0,027.2,020.7,10.3,0003.2,0010.70,0007.18,0006.73
2024-01-19 13:34:00,SystemResetWarning,0835.7,4.99,000.00,019.0,018.7,000.0,027.2,020.1,10.3,0003.3,0010.70,0007.18,0006.72
2024-01-19 13:35:00,SystemResetWarning,0835.8,4.99,000.00,018.9,018.4,000.0,027.2,020.0,10.4,0003.1,0010.61,0007.16,0006.73
2024-01-19 13:36:00,SystemResetWarning,0835.7,5.02,000.00,018.9,018.0,000.0,027.2,020.0,10.4,0002.8,0010.60,0007.14,0006.71
2024-01-19 13:37:00,SystemResetWarning,0835.7,5.01,000.00,018.9,017.8,000.0,027.3,020.0,10.4,0002.5,0010.57,0007.10,0006.69
2024-01-19 13:38:00,SystemResetWarning,0835.7,4.99,000.00,018.8,017.5,000.0,027.3,020.0,10.4,0002.8,0010.59,0007.09,0006.67
2024-01-19 13:39:00,SystemResetWarning,0835.6,5.00,000.00,018.9,017.8,000.0,027.2,020.3,10.4,0002.5,0010.73,0007.12,0006.67
2024-01-19 13:40:00,SystemResetWarning,0835.6,5.01,000.00,019.0,018.6,000.0,027.2,020.7,10.4,0001.9,0011.43,0007.14,0006.68
2024-01-19 13:41:00,SystemResetWarning,0835.6,4.99,000.00,019.1,018.9,000.0,027.2,020.5,10.4,0001.9,0011.42,0007.12,0006.67
2024-01-19 13:42:00,SystemResetWarning,0835.7,5.00,000.00,019.0,018.7,000.0,027.2,020.0,10.4,0001.7,0011.40,0007.11,0006.65
2024-01-19 13:43:00,SystemResetWarning,0835.6,5.01,000.00,018.9,018.4,000.0,027.2,020.0,10.5,0001.4,0010.76,0007.08,0006.63
2024-01-19 13:44:00,SystemResetWarning,0835.6,5.01,000.00,018.9,018.1,000.0,027.2,020.0,10.5,0001.6,0010.70,0007.07,0006.64
2024-01-19 13:45:00,SystemResetWarning,0835.6,5.00,000.00,018.9,017.8,000.0,027.3,020.0,10.5,0001.4,0010.70,0007.08,0006.66
2024-01-19 13:46:00,SystemResetWarning,0835.6,4.99,000.00,018.9,017.6,000.0,027.3,020.0,10.5,0001.4,0010.81,0007.11,0006.68
2024-01-19 13:47:00,SystemResetWarning,0835.6,5.01,000.00,018.8,017.5,000.0,027.3,020.1,10.5,0001.5,0010.84,0007.15,0006.70
2024-01-19 13:48:00,SystemResetWarning,0835.6,5.00,000.00,018.9,018.2,000.0,027.2,020.6,10.4,0001.7,0010.87,0007.17,0006.73
2024-01-19 13:49:00,SystemResetWarning,0835.6,5.00,000.00,019.0,018.9,000.0,027.2,020.8,10.3,0001.3,0010.94,0007.18,0006.77
2024-01-19 13:50:00,SystemResetWarning,0835.6,5.00,000.00,019.0,018.8,000.0,027.2,020.2,10.3,0001.6,0010.64,0007.19,0006.79
2024-01-19 13:51:00,SystemResetWarning,0835.6,4.99,000.00,018.9,018.5,000.0,027.2,020.0,10.4,0002.2,0009.99,0007.25,0006.84
2024-01-19 13:52:00,SystemResetWarning,0835.6,5.00,000.00,018.9,018.2,000.0,027.2,020.0,10.5,0002.7,0009.95,0007.25,0006.87
2024-01-19 13:53:00,SystemResetWarning,0835.6,5.00,000.00,018.9,017.9,000.0,027.3,020.0,10.5,0002.8,0009.98,0007.26,0006.90
2024-01-19 13:54:00,SystemResetWarning,0835.6,5.00,000.00,018.9,017.6,000.0,027.3,020.0,10.5,0002.8,0010.04,0007.29,0006.93
2024-01-19 13:55:00,SystemResetWarning,0835.6,5.00,000.00,018.8,017.5,000.0,027.3,020.0,10.4,0002.8,0010.21,0007.31,0006.94
2024-01-19 13:56:00,SystemResetWarning,0835.7,5.01,000.00,018.9,017.7,000.0,027.3,020.3,10.4,0002.9,0010.23,0007.30,0006.93
2024-01-19 13:57:00,SystemResetWarning,0835.6,5.01,000.00,019.0,018.5,000.0,027.2,020.7,10.4,0003.0,0010.13,0007.27,0006.91
2024-01-19 13:58:00,SystemResetWarning,0835.6,4.98,000.00,019.1,018.9,000.0,027.2,020.5,10.3,0003.3,0010.34,0007.26,0006.91
2024-01-19 13:59:00,SystemResetWarning,0835.6,5.02,000.00,019.0,018.5,000.0,027.2,020.0,10.3,0003.3,0010.35,0007.25,0006.89
